NOAA 16 DEB, 42390

Orbit data source: Space-Track

NOAA 16 DEB, 42390 is space debris in SSO originally from a launch on Thu, 21 Sep 2000 UTC launched from the Air Force Western Test Range (AFWTR). Debris objects in space refer to the collection of defunct objects orbiting the Earth. Examples of debris include non-operational satellites, rocket bodies, and fragments generated from explosions, collisions, or faulty payload assembly.

Loading next visibility...
Identifier
42390, 2000-055SJ
Orbit
SSO
Country
Flag of USUS
Related business
Manufacturer
Unknown
Mission
Spacecraft
Bus & Motor
Unknown
Mass
Unknown
Launch date (UTC)
2000-09-21 (26 years ago)
Launch vehicle
Unknown
Launch site
Air Force Western Test Range (AFWTR)
Object type
Payload
Rocket body
Debris
Shape & HBR
Unknown shape, 0.1 m
Radar Cross Section
Small (<0.1 m²)

Expand to show TLE details & history
Last TLE update: 16 hours ago

TLE from 16 hours ago
0 NOAA 16 DEB
1 42390U 00055SJ  26094.14286802  .00005060  00000-0  20103-2 0  9999
2 42390  98.6208 169.3605 0014456  43.7995 316.4330 14.29101883523805
Epoch: 2026-04-04T03:25Z
TLE epoch observation values (Epoch: 2026-04-04T03:25:43.796Z)
Latitude
-0.00012°
Longitude
-74.53885°
Altitude
790.157 km
Speed
7.463 km/s
True Right ascension
11h 17m 26s
True Declination
0° 00' 00"
Sunlit
Object was in full shadow at epoch
Visualization orbit readout
Latitude
Unknown
Longitude
Unknown
Altitude
Unknown
Speed
Unknown
Apparent Right ascension
Unknown
Apparent Declination
Unknown
Sunlit
N/A
Visualization observer readout
Local Sidereal Time
01:41:25
Azimuth
Unknown
Elevation
Unknown
Doppler factor
Unknown
Orbital elements
Apogee altitude
802.242 km
Perigee altitude
781.512 km
Semi-major axis
7,170.014 km
Eccentricity
0.00145
Inclination
98.6208°
RAAN
169.3605°
Arg. of periapsis
43.7995°
True anomaly
316.31868°
Mean anomaly
316.433°
Eccentric anomaly
316.37586°
Mean motion
3.57489 °/min
Orbital period
100.7 mins
BSTAR
0.0020103
Loading maneuver chart data...
Computing Atmospheric mass density...
Loading historical data...
Loading historical data...
Loading historical data...
Loading historical data...
Loading historical data...
Loading historical data...
Loading historical data...

Documentation

Showing up to 5 results
|